This is the latest recevied weather packets stored in our database for station/object KC1IUC-15. If no packets are shown the sender has not sent any weather packets the latest 10 day(s).
| Time | Temp. | Humidity | Pressure | Rain* | Wind** | Luminosity | Snow |
|---|---|---|---|---|---|---|---|
| 1777983303 | 15° C | 78% | 1010.6 hPa | 0 mm | - | 85 W/m² | - |
| 1777983003 | 15° C | 79% | 1010.3 hPa | 0 mm | - | 84 W/m² | - |
| 1777982703 | 14.44° C | 83% | 1010.6 hPa | 0 mm | - | 135 W/m² | - |
| 1777982403 | 14.44° C | 83% | 1010.6 hPa | 0 mm | - | 135 W/m² | - |
| 1777982103 | 13.89° C | 83% | 1010.6 hPa | 0 mm | - | 130 W/m² | - |
| 1777981803 | 13.33° C | 86% | 1011 hPa | 0 mm | - | 92 W/m² | - |
| 1777981503 | 12.78° C | 88% | 1011 hPa | 0 mm | - | 85 W/m² | - |
| 1777981203 | 12.22° C | 91% | 1010.6 hPa | 0 mm | - | 67 W/m² | - |
| 1777980903 | 11.67° C | 91% | 1010.6 hPa | 0 mm | - | 51 W/m² | - |
| 1777980603 | 11.67° C | 93% | 1011 hPa | 0 mm | - | 47 W/m² | - |
| 1777980303 | 11.11° C | 94% | 1010.6 hPa | 0 mm | - | 54 W/m² | - |
| 1777980003 | 11.11° C | 94% | 1010.6 hPa | 0 mm | - | 70 W/m² | - |
| 1777979703 | 11.11° C | 95% | 1010.6 hPa | 0 mm | - | 34 W/m² | - |
| 1777979403 | 11.11° C | 95% | 1010.6 hPa | 0 mm | - | 33 W/m² | - |
| 1777979103 | 10.56° C | 96% | 1010.6 hPa | 0 mm | - | 44 W/m² | - |
| 1777978803 | 10.56° C | 96% | 1010.6 hPa | 0 mm | - | 44 W/m² | - |
| 1777978503 | 10° C | 96% | 1010.6 hPa | 0 mm | - | 48 W/m² | - |
| 1777978203 | 10° C | 96% | 1009.9 hPa | 0 mm | - | 53 W/m² | - |
| 1777977903 | 10° C | 96% | 1010.3 hPa | 0 mm | - | 37 W/m² | - |
| 1777977603 | 9.44° C | 96% | 1010.3 hPa | 0 mm | - | 26 W/m² | - |
| 1777977303 | 9.44° C | 96% | 1010.3 hPa | 0 mm | - | 22 W/m² | - |
| 1777977003 | 9.44° C | 96% | 1010.3 hPa | 0 mm | - | 17 W/m² | - |
| 1777976703 | 9.44° C | 96% | 1010.3 hPa | 0 mm | - | 14 W/m² | - |
| 1777976403 | 9.44° C | 96% | 1009.9 hPa | 0 mm | - | 11 W/m² | - |
| 1777976103 | 9.44° C | 96% | 1009.9 hPa | 0 mm | - | 9 W/m² | - |
* Rain latest hour (hover to see other rain measurements)
** Current wind speed in m/s (hover to see current wind gust speed)